Total_Precipitation_Accumulation
0.98 1.14 1.23 1.22 1.22 1.27 1.29 1.24 1.26 1.24 1.22 1.21 1.23 1.32 1.39 1.34 1.27 1.32 1.26 1.17 1.14 1.06 1.04 1.10 1.02 0.91 0.98 1.03 1.09 1.07 1.01 1.03 1.05 0.64 0.51 0.56 0.71 0.82 0.88 0.82 0.81 0.79 0.79
0.86 0.99 1.13 1.19 1.22 1.26 1.24 1.24 1.28 1.30 1.26 1.17 1.16 1.24 1.33 1.35 1.30 1.30 1.27 1.19 1.16 1.13 1.08 1.10 1.11 1.04 1.03 1.06 1.14 1.13 1.05 0.99 1.05 0.89 0.69 0.72 0.80 0.88 0.91 0.89 0.87 0.84 0.75
0.82 0.92 1.05 1.14 1.15 1.19 1.14 1.17 1.31 1.42 1.39 1.26 1.18 1.21 1.30 1.37 1.33 1.26 1.30 1.25 1.13 1.06 1.06 1.10 1.14 1.15 1.08 1.04 1.13 1.18 1.11 1.06 1.08 1.08 0.87 0.78 0.86 0.96 1.08 1.06 1.00 0.98 0.87
0.76 0.89 0.98 1.07 1.06 1.05 1.05 1.04 1.16 1.32 1.43 1.37 1.24 1.19 1.26 1.40 1.42 1.38 1.42 1.36 1.22 1.07 0.97 0.98 1.08 1.22 1.23 1.22 1.23 1.21 1.23 1.27 1.25 1.22 1.07 0.94 0.98 1.06 1.19 1.24 1.21 1.14 1.07
0.73 0.83 0.88 0.97 1.05 1.02 0.99 1.02 1.09 1.20 1.27 1.31 1.31 1.25 1.26 1.48 1.70 1.83 1.71 1.43 1.24 1.14 0.96 0.89 0.97 1.23 1.44 1.61 1.64 1.49 1.50 1.63 1.59 1.52 1.38 1.22 1.11 1.17 1.27 1.25 1.31 1.22 1.21
0.73 0.79 0.83 0.93 1.04 1.07 1.01 1.01 1.11 1.19 1.21 1.23 1.26 1.26 1.24 1.42 1.80 2.00 1.65 1.29 1.14 1.09 1.03 0.92 0.94 1.19 1.36 1.52 1.67 1.63 1.63 1.80 1.91 1.84 1.66 1.43 1.12 1.01 1.10 1.30 1.50 1.64 1.56
0.74 0.77 0.83 0.92 0.97 1.04 1.05 1.06 1.13 1.22 1.22 1.20 1.19 1.20 1.18 1.23 1.59 1.80 1.54 1.20 1.08 1.03 0.99 0.95 0.97 1.06 1.20 1.24 1.38 1.44 1.43 1.57 1.80 1.89 1.83 1.43 1.20 1.10 1.31 1.54 1.60 1.71 1.57
0.78 0.77 0.81 0.89 0.92 1.02 1.07 1.09 1.19 1.25 1.20 1.18 1.18 1.15 1.12 1.17 1.45 1.68 1.49 1.20 1.11 1.06 1.04 0.97 0.90 0.94 1.08 1.25 1.35 1.34 1.25 1.28 1.49 1.67 1.85 1.65 1.44 1.45 1.72 1.98 2.09 2.10 1.83
0.80 0.74 0.75 0.83 0.90 0.99 1.05 1.11 1.18 1.27 1.22 1.17 1.14 1.16 1.11 1.10 1.38 1.70 1.56 1.23 1.14 1.08 1.07 1.00 0.88 0.85 1.05 1.24 1.23 1.21 1.15 1.17 1.27 1.45 1.60 1.67 1.68 1.82 2.11 2.51 2.68 2.67 2.39
0.76 0.68 0.70 0.76 0.82 0.93 1.00 1.07 1.13 1.14 1.14 1.16 1.11 1.10 1.08 1.04 1.23 1.61 1.70 1.28 1.16 1.07 1.07 1.03 1.09 1.06 1.16 1.18 1.09 1.17 1.28 1.17 1.09 1.11 1.15 1.19 1.23 1.37 1.78 2.24 2.61 2.76 2.53
0.71 0.66 0.70 0.73 0.77 0.86 0.95 0.98 1.05 1.10 1.08 1.12 1.11 1.07 1.05 1.05 1.11 1.37 1.70 1.41 1.22 1.09 1.08 1.08 1.03 1.18 1.19 1.16 1.13 1.11 1.30 1.24 1.13 1.18 1.14 1.06 1.05 1.14 1.32 1.67 2.20 2.63 2.67
0.65 0.66 0.72 0.77 0.78 0.82 0.89 0.90 0.94 1.04 1.08 1.09 1.12 1.13 1.10 1.07 1.12 1.31 1.52 1.47 1.34 1.14 1.07 0.98 0.96 1.14 1.18 1.21 1.17 1.22 1.28 1.27 1.18 1.21 1.13 1.04 1.03 1.11 1.24 1.44 1.73 2.07 2.25
0.64 0.65 0.72 0.80 0.82 0.83 0.84 0.86 0.91 0.98 1.06 1.09 1.09 1.08 1.10 1.07 1.13 1.35 1.34 1.36 1.35 1.23 1.20 1.21 1.16 1.25 1.27 1.18 1.14 1.19 1.16 1.09 1.17 1.22 1.12 0.96 0.92 1.02 1.12 1.22 1.33 1.55 1.76
0.63 0.63 0.69 0.74 0.80 0.84 0.80 0.78 0.81 0.91 1.03 1.05 1.04 0.99 0.97 1.01 1.16 1.30 1.23 1.20 1.28 1.32 1.35 1.32 1.31 1.33 1.28 1.21 1.15 1.04 0.95 0.98 1.08 1.11 1.05 0.94 0.86 0.90 1.01 1.11 1.22 1.32 1.58
0.58 0.58 0.62 0.65 0.75 0.86 0.85 0.79 0.79 0.81 0.98 1.08 1.03 0.98 1.01 1.11 1.26 1.38 1.29 1.26 1.30 1.36 1.44 1.48 1.42 1.35 1.32 1.20 1.04 0.91 0.87 0.93 0.99 0.95 0.96 0.98 0.95 0.93 0.94 1.00 1.18 1.29 1.47
0.55 0.54 0.57 0.61 0.68 0.77 0.82 0.84 0.92 0.90 0.93 0.94 0.94 0.99 0.97 1.11 1.22 1.23 1.25 1.29 1.37 1.45 1.48 1.46 1.29 1.11 1.05 0.99 0.92 0.87 0.84 0.84 0.83 0.87 0.93 0.95 0.95 0.97 0.97 0.96 1.09 1.26 1.39
0.54 0.55 0.57 0.61 0.64 0.71 0.74 0.75 0.86 0.96 0.99 0.94 0.89 0.92 0.99 1.07 1.10 1.13 1.18 1.24 1.32 1.33 1.28 1.14 1.02 0.95 0.89 0.85 0.82 0.80 0.80 0.75 0.76 0.83 0.88 0.90 0.89 0.94 0.98 1.00 1.05 1.17 1.30
0.56 0.61 0.65 0.63 0.65 0.70 0.70 0.68 0.71 0.79 0.88 0.92 0.94 0.93 0.98 1.03 1.08 1.09 1.14 1.26 1.31 1.15 1.00 0.98 0.95 0.91 0.91 0.92 0.89 0.85 0.81 0.79 0.81 0.80 0.82 0.84 0.87 0.95 0.98 0.97 1.00 1.12 1.22
0.61 0.64 0.68 0.67 0.68 0.70 0.70 0.68 0.70 0.72 0.76 0.82 0.89 0.97 1.06 1.08 1.10 1.14 1.13 1.10 1.08 1.00 0.92 0.92 0.91 0.92 0.95 0.96 0.90 0.87 0.85 0.82 0.77 0.77 0.76 0.76 0.79 0.88 0.91 0.88 0.94 1.06 1.15
0.69 0.77 0.78 0.73 0.71 0.75 0.76 0.76 0.75 0.75 0.78 0.80 0.83 0.90 1.07 1.15 1.14 1.16 1.11 1.03 0.99 0.93 0.90 0.91 0.91 0.93 0.96 0.97 0.93 0.89 0.89 0.84 0.78 0.76 0.72 0.72 0.73 0.81 0.86 0.87 0.93 1.00 1.03
0.75 0.80 0.87 0.79 0.75 0.80 0.86 0.85 0.81 0.83 0.85 0.83 0.80 0.87 1.12 1.18 1.08 0.98 1.00 0.99 0.98 0.96 0.96 0.96 0.96 0.94 0.93 0.93 0.94 0.90 0.87 0.83 0.79 0.77 0.74 0.73 0.75 0.79 0.80 0.85 0.90 0.92 0.96
0.78 0.81 0.84 0.83 0.81 0.85 0.91 0.91 0.89 0.89 0.89 0.89 0.86 0.90 1.02 0.97 0.93 0.93 0.93 0.93 0.93 0.94 0.97 1.01 0.99 0.95 0.94 0.95 0.96 0.93 0.86 0.80 0.77 0.78 0.77 0.73 0.73 0.74 0.76 0.80 0.84 0.87 0.91
0.82 0.85 0.88 0.89 0.84 0.92 0.96 0.94 0.93 0.92 0.92 0.90 0.91 0.91 0.93 0.93 0.94 0.97 0.99 0.97 0.96 0.97 0.95 0.95 0.95 0.92 0.90 0.90 0.91 0.95 0.91 0.79 0.75 0.79 0.83 0.77 0.70 0.69 0.71 0.73 0.74 0.79 0.84
0.87 0.89 0.91 0.93 0.90 0.90 0.94 0.98 0.97 0.95 0.95 0.94 0.95 0.96 0.94 0.96 0.95 0.96 0.97 0.99 1.00 0.98 0.93 0.91 0.89 0.86 0.85 0.85 0.84 0.85 0.83 0.83 0.89 0.91 0.85 0.83 0.76 0.68 0.69 0.71 0.69 0.72 0.80
0.93 0.93 0.95 0.98 0.98 0.97 0.97 0.99 0.98 0.98 0.98 0.96 0.96 0.97 0.96 0.96 0.95 0.94 0.95 0.95 0.97 0.95 0.88 0.87 0.90 0.90 0.87 0.82 0.78 0.78 0.86 0.95 1.03 1.11 1.10 1.01 0.85 0.72 0.71 0.71 0.69 0.71 0.77
0.94 0.94 0.96 0.99 1.01 0.99 1.00 1.02 1.01 1.00 1.02 0.98 0.94 0.96 0.97 0.96 0.94 0.92 0.91 0.93 0.96 0.93 0.87 0.84 0.86 0.88 0.86 0.83 0.82 0.87 0.94 0.96 1.00 1.05 1.12 1.12 0.94 0.76 0.73 0.75 0.71 0.71 0.76